AAL127 KDCA-KPWM

Flight info

Callsign AAL127
Flight time 1h 7m
Altitude 37000
Route SOOKI6 SWANN BROSS Q419 RBV Q22 LLUND BDR SCOGS3
Aircraft A320/M-SDE3FGHIRWY/LB1

Departure

Time 2026-05-08 00:35
Airport Ronald Reagan Washington National Airport (KDCA)

Arrival

Time 2026-05-08 01:43
Airport Portland International Jetport (KPWM)
Time Latitude Longitude Altitude Speed Heading
2026-05-08 00:11 38.85663 -77.04257 28 ft 0 kts 169°
2026-05-08 00:27 38.85674 -77.04260 28 ft 2 kts 169°
2026-05-08 00:27 38.85691 -77.04264 28 ft 2 kts 162°
2026-05-08 00:27 38.85704 -77.04277 27 ft 2 kts 89°
2026-05-08 00:27 38.85704 -77.04282 27 ft 0 kts 78°
2026-05-08 00:30 38.85731 -77.04179 29 ft 21 kts 68°
2026-05-08 00:30 38.85746 -77.04133 29 ft 0 kts 66°
2026-05-08 00:31 38.85747 -77.04129 29 ft 4 kts 66°
2026-05-08 00:31 38.85831 -77.04049 27 ft 26 kts 353°
2026-05-08 00:32 38.85954 -77.04002 26 ft 14 kts 43°
2026-05-08 00:32 38.85977 -77.03992 26 ft 0 kts 16°
2026-05-08 00:33 38.85978 -77.03991 26 ft 2 kts 16°
2026-05-08 00:34 38.86066 -77.03959 24 ft 23 kts 15°
2026-05-08 00:34 38.86049 -77.03867 23 ft 17 kts 172°
2026-05-08 00:34 38.85932 -77.03855 27 ft 17 kts 175°
2026-05-08 00:34 38.85654 -77.03825 25 ft 74 kts 175°
2026-05-08 00:35 38.84931 -77.03754 23 ft 131 kts 175°
2026-05-08 00:35 38.83952 -77.03672 464 ft 141 kts 175°
2026-05-08 00:35 38.82952 -77.03531 1009 ft 149 kts 174°
2026-05-08 00:35 38.81926 -77.03310 1650 ft 150 kts 174°
2026-05-08 00:36 38.80842 -77.03072 2021 ft 168 kts 173°
2026-05-08 00:36 38.79609 -77.02801 2327 ft 191 kts 173°
2026-05-08 00:36 38.78216 -77.02498 2617 ft 216 kts 172°
2026-05-08 00:36 38.76668 -77.02090 3029 ft 239 kts 159°
2026-05-08 00:37 38.75358 -77.00748 3627 ft 253 kts 121°
2026-05-08 00:37 38.74794 -76.98585 4144 ft 267 kts 95°
2026-05-08 00:37 38.74724 -76.96186 4985 ft 272 kts 84°
2026-05-08 00:38 38.75766 -76.92412 6364 ft 272 kts 50°
2026-05-08 00:38 38.76997 -76.90564 7126 ft 275 kts 37°
2026-05-08 00:38 38.79092 -76.88702 8068 ft 281 kts 25°
2026-05-08 00:38 38.80210 -76.87827 8552 ft 287 kts 25°
2026-05-08 00:39 38.81940 -76.86478 9252 ft 295 kts 24°
2026-05-08 00:39 38.84354 -76.84606 10140 ft 309 kts 24°
2026-05-08 00:39 38.86238 -76.83094 10465 ft 334 kts 30°
2026-05-08 00:39 38.88081 -76.81088 10812 ft 356 kts 37°
2026-05-08 00:40 38.89940 -76.78923 11421 ft 365 kts 37°
2026-05-08 00:40 38.91841 -76.76715 12074 ft 373 kts 37°
2026-05-08 00:40 38.93125 -76.75226 12503 ft 377 kts 37°
2026-05-08 00:40 38.95086 -76.72947 13194 ft 384 kts 37°
2026-05-08 00:41 38.97090 -76.70620 13805 ft 391 kts 37°
2026-05-08 00:41 38.99125 -76.68257 14413 ft 396 kts 37°
2026-05-08 00:41 38.99816 -76.67454 14624 ft 398 kts 37°
2026-05-08 00:41 39.03875 -76.62577 15924 ft 406 kts 40°
2026-05-08 00:42 39.04560 -76.61710 16128 ft 408 kts 40°
2026-05-08 00:42 39.07262 -76.58222 16935 ft 413 kts 41°
2026-05-08 00:42 39.09206 -76.55535 17526 ft 421 kts 48°
2026-05-08 00:42 39.11276 -76.51190 18294 ft 431 kts 64°
2026-05-08 00:43 39.12008 -76.48744 18644 ft 435 kts 72°
2026-05-08 00:43 39.12661 -76.44939 19166 ft 438 kts 82°
2026-05-08 00:43 39.13107 -76.41036 19686 ft 443 kts 83°
2026-05-08 00:43 39.13554 -76.37091 20182 ft 447 kts 83°
2026-05-08 00:44 39.13997 -76.33164 20669 ft 452 kts 83°
2026-05-08 00:44 39.14451 -76.29131 21158 ft 456 kts 83°
2026-05-08 00:44 39.14907 -76.25068 21644 ft 461 kts 83°
2026-05-08 00:44 39.15368 -76.20951 22132 ft 466 kts 82°
2026-05-08 00:45 39.15840 -76.16802 22619 ft 470 kts 82°
2026-05-08 00:45 39.16324 -76.12613 23061 ft 475 kts 82°
2026-05-08 00:45 39.16814 -76.08382 23535 ft 479 kts 82°
2026-05-08 00:45 39.17303 -76.04129 23931 ft 483 kts 82°
2026-05-08 00:46 39.17787 -75.99885 24309 ft 487 kts 82°
2026-05-08 00:46 39.18409 -75.95580 24723 ft 491 kts 74°
2026-05-08 00:46 39.19522 -75.91418 25081 ft 492 kts 63°
2026-05-08 00:46 39.21132 -75.87527 25436 ft 491 kts 52°
2026-05-08 00:47 39.23181 -75.84027 25785 ft 488 kts 41°
2026-05-08 00:47 39.25606 -75.80990 26153 ft 483 kts 32°
2026-05-08 00:47 39.28192 -75.78185 26479 ft 486 kts 32°
2026-05-08 00:47 39.30749 -75.75401 26836 ft 489 kts 32°
2026-05-08 00:48 39.33352 -75.72555 27183 ft 492 kts 32°
2026-05-08 00:48 39.35963 -75.69687 27532 ft 494 kts 32°
2026-05-08 00:48 39.38590 -75.66799 27916 ft 498 kts 32°
2026-05-08 00:48 39.41235 -75.63882 28248 ft 501 kts 32°
2026-05-08 00:49 39.43896 -75.60946 28576 ft 504 kts 32°
2026-05-08 00:49 39.46573 -75.57994 28893 ft 507 kts 32°
2026-05-08 00:49 39.49264 -75.55036 29205 ft 509 kts 32°
2026-05-08 00:49 39.51972 -75.52059 29513 ft 512 kts 32°
2026-05-08 00:50 39.54696 -75.49052 29815 ft 515 kts 32°
2026-05-08 00:50 39.57426 -75.46034 30113 ft 518 kts 32°
2026-05-08 00:50 39.60176 -75.42995 30350 ft 521 kts 32°
2026-05-08 00:50 39.62938 -75.39936 30580 ft 522 kts 32°
2026-05-08 00:51 39.65702 -75.36875 30837 ft 524 kts 32°
2026-05-08 00:51 39.68477 -75.33798 31071 ft 526 kts 32°
2026-05-08 00:51 39.71266 -75.30700 31303 ft 528 kts 32°
2026-05-08 00:51 39.74053 -75.27586 31607 ft 528 kts 32°
2026-05-08 00:52 39.76838 -75.24474 31951 ft 527 kts 32°
2026-05-08 00:52 39.79548 -75.21244 32274 ft 534 kts 39°
2026-05-08 00:52 39.82005 -75.17669 32583 ft 537 kts 41°
2026-05-08 00:52 39.84463 -75.14017 32898 ft 537 kts 41°
2026-05-08 00:53 39.86920 -75.10353 33214 ft 537 kts 41°
2026-05-08 00:53 39.89374 -75.06685 33546 ft 537 kts 41°
2026-05-08 00:53 39.91824 -75.03019 33839 ft 536 kts 41°
2026-05-08 00:53 39.94269 -74.99371 34194 ft 535 kts 41°
2026-05-08 00:54 39.96693 -74.95677 34454 ft 538 kts 46°
2026-05-08 00:54 39.98843 -74.91660 34706 ft 542 kts 51°
2026-05-08 00:54 40.00926 -74.87574 34958 ft 541 kts 51°
2026-05-08 00:54 40.03011 -74.83492 35210 ft 540 kts 51°
2026-05-08 00:55 40.05096 -74.79404 35458 ft 540 kts 51°
2026-05-08 00:55 40.07176 -74.75322 35709 ft 539 kts 51°
2026-05-08 00:55 40.09251 -74.71250 35932 ft 538 kts 51°
2026-05-08 00:55 40.11319 -74.67174 36202 ft 538 kts 52°
2026-05-08 00:56 40.13380 -74.63104 36411 ft 538 kts 52°
2026-05-08 00:56 40.15444 -74.59015 36623 ft 538 kts 52°
2026-05-08 00:56 40.17499 -74.54938 36807 ft 538 kts 52°
2026-05-08 00:57 40.22174 -74.47499 36854 ft 520 kts 34°
2026-05-08 00:57 40.27717 -74.41543 36883 ft 515 kts 31°
2026-05-08 00:58 40.33274 -74.35610 36839 ft 516 kts 31°
2026-05-08 00:58 40.38831 -74.29646 36878 ft 517 kts 31°
2026-05-08 00:59 40.44402 -74.23665 36886 ft 517 kts 31°
2026-05-08 00:59 40.49973 -74.17672 36880 ft 518 kts 32°
2026-05-08 01:00 40.55496 -74.11691 36870 ft 518 kts 32°
2026-05-08 01:00 40.61060 -74.05675 36865 ft 519 kts 32°
2026-05-08 01:01 40.66641 -73.99624 36891 ft 520 kts 32°
2026-05-08 01:01 40.72225 -73.93552 36897 ft 521 kts 32°
2026-05-08 01:02 40.77821 -73.87459 36882 ft 522 kts 32°
2026-05-08 01:02 40.83414 -73.81354 36881 ft 524 kts 34°
2026-05-08 01:02 40.86020 -73.77927 36871 ft 531 kts 45°
2026-05-08 01:03 40.88220 -73.73989 36871 ft 535 kts 55°
2026-05-08 01:03 40.92062 -73.65543 36872 ft 537 kts 56°
2026-05-08 01:04 40.95932 -73.57061 36859 ft 538 kts 56°
2026-05-08 01:04 40.99797 -73.48578 36879 ft 539 kts 56°
2026-05-08 01:05 41.03649 -73.40063 36894 ft 539 kts 56°
2026-05-08 01:05 41.07503 -73.31520 36899 ft 539 kts 56°
2026-05-08 01:06 41.11351 -73.22986 36891 ft 539 kts 56°
2026-05-08 01:06 41.15163 -73.14497 36901 ft 539 kts 56°
2026-05-08 01:07 41.19036 -73.05986 36870 ft 537 kts 55°
2026-05-08 01:07 41.23007 -72.97594 36879 ft 537 kts 54°
2026-05-08 01:08 41.27002 -72.89207 36873 ft 538 kts 55°
2026-05-08 01:08 41.30971 -72.80757 36900 ft 539 kts 55°
2026-05-08 01:09 41.34909 -72.72275 36860 ft 537 kts 55°
2026-05-08 01:09 41.38838 -72.63805 36886 ft 538 kts 55°
2026-05-08 01:10 41.42772 -72.55327 36871 ft 539 kts 56°
2026-05-08 01:10 41.46711 -72.46816 36889 ft 540 kts 56°
2026-05-08 01:11 41.50643 -72.38285 36867 ft 540 kts 56°
2026-05-08 01:11 41.54559 -72.29738 36871 ft 540 kts 56°
2026-05-08 01:12 41.58479 -72.21176 36841 ft 540 kts 56°
2026-05-08 01:12 41.62399 -72.12623 36913 ft 540 kts 56°
2026-05-08 01:13 41.66315 -72.04038 36899 ft 540 kts 56°
2026-05-08 01:13 41.70221 -71.95465 36888 ft 540 kts 56°
2026-05-08 01:14 41.74131 -71.86852 36858 ft 540 kts 57°
2026-05-08 01:14 41.76075 -71.82538 36725 ft 544 kts 57°
2026-05-08 01:14 41.78000 -71.78250 36507 ft 543 kts 57°
2026-05-08 01:14 41.79944 -71.73923 36259 ft 540 kts 56°
2026-05-08 01:15 41.81880 -71.69619 36019 ft 538 kts 56°
2026-05-08 01:15 41.83805 -71.65337 35785 ft 535 kts 57°
2026-05-08 01:15 41.85517 -71.60911 35540 ft 533 kts 63°
2026-05-08 01:15 41.87129 -71.56450 35299 ft 531 kts 63°
2026-05-08 01:16 41.88730 -71.52005 35016 ft 527 kts 63°
2026-05-08 01:16 41.90318 -71.47587 34781 ft 524 kts 63°
2026-05-08 01:16 41.91895 -71.43195 34602 ft 521 kts 63°
2026-05-08 01:16 41.93462 -71.38829 34363 ft 518 kts 63°
2026-05-08 01:17 41.95025 -71.34469 34139 ft 516 kts 63°
2026-05-08 01:17 41.96573 -71.30141 33911 ft 513 kts 63°
2026-05-08 01:17 41.98108 -71.25842 33600 ft 508 kts 63°
2026-05-08 01:17 41.99634 -71.21567 33051 ft 506 kts 63°
2026-05-08 01:18 42.01149 -71.17315 32549 ft 502 kts 63°
2026-05-08 01:18 42.02651 -71.13091 32037 ft 500 kts 63°
2026-05-08 01:18 42.04146 -71.08873 31527 ft 498 kts 63°
2026-05-08 01:18 42.05627 -71.04676 31038 ft 496 kts 63°
2026-05-08 01:19 42.07198 -71.00557 30526 ft 492 kts 55°
2026-05-08 01:19 42.09208 -70.96883 30049 ft 483 kts 43°
2026-05-08 01:19 42.11577 -70.93836 29546 ft 472 kts 31°
2026-05-08 01:19 42.14248 -70.91424 29107 ft 453 kts 20°
2026-05-08 01:20 42.17079 -70.89692 28684 ft 431 kts
2026-05-08 01:20 42.19840 -70.88411 28295 ft 420 kts
2026-05-08 01:20 42.22573 -70.87133 27914 ft 411 kts
2026-05-08 01:20 42.25282 -70.85859 27512 ft 403 kts
2026-05-08 01:21 42.27912 -70.84626 27128 ft 399 kts
2026-05-08 01:21 42.30497 -70.83421 26746 ft 397 kts
2026-05-08 01:21 42.33105 -70.82209 26343 ft 395 kts
2026-05-08 01:21 42.35705 -70.81001 25944 ft 393 kts
2026-05-08 01:22 42.38281 -70.79799 25536 ft 392 kts
2026-05-08 01:22 42.40856 -70.78591 25127 ft 390 kts 10°
2026-05-08 01:22 42.43408 -70.77392 24685 ft 389 kts 10°
2026-05-08 01:22 42.45946 -70.76127 24197 ft 388 kts 12°
2026-05-08 01:23 42.48468 -70.74769 23722 ft 390 kts 14°
2026-05-08 01:23 42.50983 -70.73362 23209 ft 393 kts 14°
2026-05-08 01:23 42.53507 -70.71929 22699 ft 393 kts 15°
2026-05-08 01:23 42.56026 -70.70501 22228 ft 392 kts 14°
2026-05-08 01:24 42.58551 -70.69084 21761 ft 392 kts 14°
2026-05-08 01:24 42.61090 -70.67677 21284 ft 403 kts 14°
2026-05-08 01:24 42.63785 -70.66214 20764 ft 427 kts 15°
2026-05-08 01:24 42.66532 -70.64716 20272 ft 431 kts 15°
2026-05-08 01:25 42.69336 -70.63132 19754 ft 431 kts 17°
2026-05-08 01:25 42.72070 -70.61466 19252 ft 430 kts 19°
2026-05-08 01:25 42.74736 -70.59765 18747 ft 430 kts 19°
2026-05-08 01:25 42.77420 -70.58019 18439 ft 423 kts 20°
2026-05-08 01:26 42.80059 -70.56297 18080 ft 418 kts 20°
2026-05-08 01:26 42.82673 -70.54608 17639 ft 413 kts 19°
2026-05-08 01:26 42.85265 -70.52960 17169 ft 409 kts 19°
2026-05-08 01:26 42.87837 -70.51342 16737 ft 405 kts 19°
2026-05-08 01:27 42.90384 -70.49743 16334 ft 400 kts 19°
2026-05-08 01:27 42.92902 -70.48159 15958 ft 397 kts 19°
2026-05-08 01:27 42.95403 -70.46582 15525 ft 394 kts 19°
2026-05-08 01:27 42.97878 -70.45020 15099 ft 390 kts 19°
2026-05-08 01:28 43.00324 -70.43471 14682 ft 386 kts 19°
2026-05-08 01:28 43.02715 -70.41810 14263 ft 387 kts 27°
2026-05-08 01:28 43.04972 -70.39856 13983 ft 379 kts 28°
2026-05-08 01:28 43.07149 -70.37963 13721 ft 372 kts 28°
2026-05-08 01:29 43.09317 -70.36079 13341 ft 367 kts 27°
2026-05-08 01:29 43.11467 -70.34212 13181 ft 355 kts 27°
2026-05-08 01:29 43.13518 -70.32427 13049 ft 344 kts 27°
2026-05-08 01:29 43.15477 -70.30725 12913 ft 333 kts 27°
2026-05-08 01:30 43.17403 -70.29048 12782 ft 323 kts 27°
2026-05-08 01:30 43.19274 -70.27407 12647 ft 314 kts 27°
2026-05-08 01:30 43.21086 -70.25812 12518 ft 305 kts 27°
2026-05-08 01:30 43.22844 -70.24260 12383 ft 296 kts 27°
2026-05-08 01:31 43.24554 -70.22752 12251 ft 288 kts 27°
2026-05-08 01:31 43.26218 -70.21294 12126 ft 279 kts 26°
2026-05-08 01:31 43.27293 -70.20363 12026 ft 274 kts 26°
2026-05-08 01:31 43.28899 -70.18982 11807 ft 270 kts 26°
2026-05-08 01:32 43.30482 -70.17628 11542 ft 267 kts 26°
2026-05-08 01:32 43.32051 -70.16285 11273 ft 264 kts 26°
2026-05-08 01:32 43.33616 -70.14998 11059 ft 258 kts 24°
2026-05-08 01:32 43.35144 -70.13788 10895 ft 251 kts 23°
2026-05-08 01:33 43.36666 -70.12604 10533 ft 252 kts 23°
2026-05-08 01:33 43.38188 -70.11418 10270 ft 248 kts 24°
2026-05-08 01:33 43.39659 -70.10260 10138 ft 239 kts 24°
2026-05-08 01:33 43.41075 -70.09141 9943 ft 232 kts 23°
2026-05-08 01:34 43.42465 -70.08046 9673 ft 229 kts 24°
2026-05-08 01:34 43.43838 -70.06964 9377 ft 226 kts 24°
2026-05-08 01:34 43.45196 -70.05896 9049 ft 224 kts 24°
2026-05-08 01:34 43.46547 -70.04836 8697 ft 223 kts 24°
2026-05-08 01:35 43.47906 -70.03768 8200 ft 230 kts 24°
2026-05-08 01:35 43.49286 -70.02677 7953 ft 224 kts 25°
2026-05-08 01:35 43.50624 -70.01612 7682 ft 221 kts 25°
2026-05-08 01:35 43.51945 -70.00561 7371 ft 219 kts 25°
2026-05-08 01:36 43.53242 -69.99530 7176 ft 213 kts 25°
2026-05-08 01:36 43.54517 -69.98513 7037 ft 206 kts 25°
2026-05-08 01:36 43.55778 -69.97549 6560 ft 215 kts 17°
2026-05-08 01:36 43.57253 -69.97187 5978 ft 219 kts 350°
2026-05-08 01:37 43.58719 -69.97788 5356 ft 223 kts 325°
2026-05-08 01:37 43.59854 -69.99258 4732 ft 229 kts 303°
2026-05-08 01:37 43.60732 -70.01080 4392 ft 223 kts 302°
2026-05-08 01:37 43.61582 -70.02848 3788 ft 221 kts 303°
2026-05-08 01:38 43.62411 -70.04620 3243 ft 217 kts 298°
2026-05-08 01:38 43.62792 -70.06542 3020 ft 198 kts 276°
2026-05-08 01:38 43.62908 -70.08303 2989 ft 171 kts 278°
2026-05-08 01:38 43.63020 -70.09850 2879 ft 154 kts 278°
2026-05-08 01:39 43.63121 -70.11270 2715 ft 144 kts 278°
2026-05-08 01:39 43.63217 -70.12629 2531 ft 140 kts 278°
2026-05-08 01:39 43.63307 -70.13927 2349 ft 136 kts 279°
2026-05-08 01:39 43.63396 -70.15210 2169 ft 133 kts 279°
2026-05-08 01:40 43.63484 -70.16474 1989 ft 132 kts 279°
2026-05-08 01:40 43.63571 -70.17735 1809 ft 132 kts 279°
2026-05-08 01:40 43.63658 -70.18996 1628 ft 132 kts 280°
2026-05-08 01:40 43.63744 -70.20246 1454 ft 130 kts 280°
2026-05-08 01:41 43.63829 -70.21489 1269 ft 130 kts 279°
2026-05-08 01:41 43.63914 -70.22725 1083 ft 129 kts 279°
2026-05-08 01:41 43.63999 -70.23964 917 ft 129 kts 278°
2026-05-08 01:41 43.64084 -70.25206 741 ft 130 kts 277°
2026-05-08 01:42 43.64163 -70.26455 565 ft 131 kts 276°
2026-05-08 01:42 43.64235 -70.27715 415 ft 132 kts 276°
2026-05-08 01:42 43.64332 -70.28982 218 ft 132 kts 279°
2026-05-08 01:42 43.64422 -70.30246 72 ft 132 kts 276°
2026-05-08 01:43 43.64498 -70.31270 59 ft 69 kts 274°
2026-05-08 01:43 43.64540 -70.31593 66 ft 19 kts 329°
2026-05-08 01:43 43.64620 -70.31534 67 ft 0 kts 66°
2026-05-08 01:44 43.64628 -70.31497 66 ft 0 kts 85°
2026-05-08 01:45 43.64620 -70.31418 67 ft 19 kts 97°
2026-05-08 01:45 43.64608 -70.31240 65 ft 13 kts 94°
2026-05-08 01:45 43.64625 -70.31172 58 ft 6 kts 27°
2026-05-08 01:45 43.64650 -70.31184 61 ft 3 kts 338°
2026-05-08 01:46 43.64672 -70.31174 60 ft 4 kts 25°
2026-05-08 01:46 43.64676 -70.31172 60 ft 0 kts 22°